RH
66 71 96 86 98 98 97 72 62 42 39 42 46 51 35 33 48 84 65 33 20 22 14 10 12 15 12 14 12 13 14 19 68 64 24 15 16 19 21 23 24 24 26 26
82 99 92 99 92 74 87 95 82 42 22 42 72 78 29 42 51 49 50 34 19 17 11 8 11 14 16 17 24 33 65 66 51 24 15 18 21 24 25 26 27 27 25 23
89 93 91 77 77 80 76 83 72 60 58 75 100 68 25 19 22 52 38 43 34 20 14 10 10 11 14 18 21 34 33 29 21 16 18 20 23 25 25 25 24 21 19 17
97 79 74 61 58 67 84 59 77 96 76 56 80 75 57 36 58 77 57 37 41 51 35 18 14 11 16 18 17 17 26 37 18 19 20 24 25 24 25 22 18 17 16 18
66 70 67 73 58 88 67 100 100 97 84 55 35 49 53 51 49 77 69 56 44 26 27 28 30 23 18 14 19 51 46 27 22 23 25 24 22 22 16 16 17 17 18 19
62 66 83 70 79 85 58 94 100 76 76 47 91 57 70 98 72 68 61 52 28 19 20 30 25 26 18 20 40 36 25 25 26 27 24 17 16 16 17 17 17 17 17 17
54 73 81 81 79 84 69 72 69 65 66 42 59 60 62 73 60 41 38 32 26 18 14 15 16 49 33 33 22 22 24 24 24 19 17 17 17 17 16 16 16 16 16 19
52 55 62 66 85 62 44 56 66 51 53 66 79 28 89 80 72 44 47 33 18 16 17 18 23 37 23 15 14 14 15 16 18 18 18 16 15 15 15 14 14 16 21 26
51 48 50 64 66 59 56 52 53 54 54 50 96 78 67 56 44 29 36 21 18 18 18 18 17 16 15 16 17 18 18 17 17 16 16 15 13 13 14 17 23 29 50 40
56 47 62 98 92 98 39 47 58 56 64 63 53 46 52 31 27 52 80 55 38 19 19 19 19 19 19 18 18 17 16 15 15 16 16 14 16 21 30 37 33 37 41 40
52 74 92 81 84 84 49 32 51 52 46 28 22 19 18 20 60 85 99 78 61 46 24 21 22 25 25 22 20 18 17 17 16 19 27 48 70 82 100 79 54 47 42 41
100 100 62 77 100 81 98 34 28 29 54 48 26 14 14 18 37 81 83 78 69 53 39 27 23 26 26 24 22 22 20 21 23 29 29 30 48 65 100 58 42 35 38 58
89 97 100 80 88 64 42 32 32 40 25 17 16 13 12 18 20 16 19 21 23 27 30 24 27 27 24 19 16 12 33 48 39 38 54 76 56 60 40 37 36 48 61 54
89 85 76 42 29 46 30 26 48 39 18 19 16 16 13 14 15 22 20 23 24 25 25 26 31 21 13 11 16 40 75 67 61 85 70 43 44 38 36 42 61 59 49 64
87 54 26 16 20 25 21 16 9 15 18 23 41 24 30 26 14 18 22 25 28 29 29 31 34 42 28 47 65 72 86 76 71 46 34 33 34 36 49 60 53 53 88 95
25 31 29 21 17 13 10 8 8 9 13 11 12 15 25 30 34 30 30 28 32 31 26 21 88 63 74 80 81 72 64 28 26 34 36 34 35 58 54 49 73 100 100 100
22 24 20 13 10 9 8 9 11 11 14 12 14 15 19 23 19 22 29 31 29 27 21 22 54 62 54 47 57 20 18 25 31 28 32 53 53 47 61 92 100 100 100 100
20 15 13 11 11 8 12 16 18 20 22 26 26 25 27 28 26 27 29 31 28 27 29 29 26 22 16 16 16 18 19 19 26 42 53 49 53 78 99 99 99 99 99 100
20 26 16 10 10 14 21 29 32 34 35 30 29 29 31 31 29 25 22 27 32 29 23 19 16 16 15 13 14 16 23 34 43 47 44 56 86 93 90 94 95 94 98 100
31 54 19 22 33 33 22 34 32 31 36 34 37 43 39 33 31 33 32 25 17 14 16 15 12 10 11 14 22 32 40 47 44 46 64 81 93 94 97 92 91 100 100 100
47 20 10 7 7 10 19 24 38 35 34 42 41 42 41 36 29 18 12 13 14 11 8 8 10 16 24 29 37 48 47 41 48 69 95 98 97 97 91 87 92 90 86 89
31 18 10 8 7 8 13 21 25 30 32 34 27 18 12 11 11 12 12 9 8 8 8 11 15 20 33 48 51 45 46 63 92 99 100 100 91 76 70 84 90 60 66 70
34 22 16 13 9 8 10 13 16 18 15 13 15 14 13 13 13 12 10 9 9 9 11 14 26 47 55 52 49 52 67 94 100 100 96 77 59 41 27 14 22 39 72 60
27 20 17 17 13 12 13 13 13 14 15 14 13 11 11 13 15 15 14 13 13 13 16 35 56 59 54 46 42 59 85 96 98 81 62 39 12 5 7 11 24 52 55 42
32 20 22 22 18 18 17 16 16 15 14 14 13 14 14 16 17 18 17 16 16 24 47 60 59 46 34 42 64 88 91 82 68 43 13 5 5 6 11 26 51 49 34 41
41 26 27 28 27 22 20 18 18 17 16 15 16 17 19 22 24 22 20 20 26 48 59 54 36 32 54 80 87 84 72 60 30 7 5 5 6 10 24 44 47 44 63 75
Wind_Speed
1 5 12 4 19 18 18 15 17 11 12 10 9 4 8 7 5 2 7 7 5 11 12 12 9 5 1 4 7 11 11 10 11 12 13 10 10 12 17 19 22 24 26 30
6 10 11 18 14 13 9 10 11 8 10 9 1 3 4 3 3 1 3 5 1 4 6 5 6 6 5 7 8 10 12 11 12 10 9 11 14 17 21 23 27 31 35 38
3 6 9 11 11 7 9 13 13 8 4 6 3 9 4 2 4 2 2 4 4 9 11 9 8 7 7 8 8 8 11 8 7 10 13 15 18 22 26 29 33 37 40 42
1 4 14 20 16 11 5 12 11 7 5 4 12 13 11 5 8 6 7 5 3 4 8 11 10 8 7 8 8 6 6 7 10 14 18 21 24 27 31 35 38 41 44 45
3 6 10 19 17 4 6 13 16 14 14 16 14 15 7 14 18 12 8 8 5 4 4 5 9 11 10 7 6 7 8 12 15 19 23 26 29 33 37 40 42 44 46 47
6 9 17 17 5 3 7 15 24 21 19 14 11 18 7 11 8 7 7 5 6 5 3 3 8 10 10 7 10 11 14 17 21 25 29 32 34 37 40 43 46 48 50 51
10 12 18 14 12 11 6 13 18 18 22 18 18 21 11 10 7 4 5 7 5 5 2 2 5 6 9 11 14 17 20 23 27 30 34 38 40 42 44 47 50 53 54 56
12 16 18 11 15 16 15 14 20 21 21 18 22 21 13 6 5 8 7 4 5 4 3 4 7 10 14 16 19 21 24 26 30 34 39 43 45 46 48 51 54 55 56 57
20 23 21 18 17 19 15 13 17 24 22 22 16 20 19 14 11 12 7 3 6 7 8 8 11 14 17 20 24 26 28 30 34 37 42 45 47 49 51 51 51 53 54 58
21 21 20 20 14 22 15 16 15 25 20 19 17 18 22 17 13 11 9 10 10 11 11 12 15 17 21 25 28 30 33 35 37 40 44 47 49 50 50 51 52 55 56 58
21 21 20 17 21 15 19 13 17 17 17 17 18 18 19 17 14 15 16 14 16 17 17 18 19 22 25 29 32 35 37 40 42 43 44 45 47 47 42 50 57 56 57 57
20 22 21 15 14 26 26 20 15 16 16 21 21 19 18 18 19 19 21 22 22 23 23 25 26 29 31 32 33 37 41 42 41 44 47 50 50 50 44 59 60 60 59 60
20 21 22 19 14 16 23 22 18 21 23 23 25 22 17 23 24 24 29 30 28 26 27 29 30 32 35 36 38 41 38 39 44 48 49 49 54 55 59 59 60 61 61 63
25 25 23 20 17 22 24 22 22 25 26 25 24 23 22 25 26 27 30 29 29 26 27 30 31 34 37 39 37 34 36 41 46 45 52 57 57 58 58 58 60 61 63 64
33 28 23 22 22 23 25 26 24 26 27 27 22 19 17 24 27 28 30 31 30 28 31 33 32 33 32 33 34 37 39 47 48 55 57 58 58 57 58 60 61 61 63 65
30 27 27 27 25 26 27 30 29 26 25 28 26 22 22 21 25 27 29 31 32 33 34 35 27 31 31 34 36 41 46 55 54 55 56 57 57 57 59 60 62 62 64 65
28 29 27 27 27 28 32 29 30 29 27 30 28 26 23 25 25 26 27 30 32 34 37 36 35 35 37 43 44 51 52 52 53 55 55 55 58 58 60 61 62 63 64 67
31 30 29 28 30 33 24 26 25 26 26 28 28 28 25 26 26 27 28 30 32 34 37 39 40 42 45 48 50 50 52 53 53 53 55 57 57 59 61 61 64 66 69 72
32 29 28 30 28 28 24 25 24 24 25 26 24 23 22 23 26 29 29 31 34 36 37 38 41 44 46 48 49 51 51 52 54 55 56 58 60 61 63 64 67 70 72 73
30 27 28 29 28 27 22 25 23 23 26 22 20 22 24 26 29 30 32 33 34 35 37 39 42 45 47 48 49 50 52 53 55 55 58 59 60 63 65 68 71 71 72 76
29 31 29 27 28 26 22 23 25 25 20 21 23 24 26 29 30 30 32 34 35 37 40 43 44 45 46 48 50 51 53 55 56 57 58 60 63 65 68 70 72 75 76 75
31 30 27 26 25 23 19 22 23 21 22 22 23 24 24 26 28 31 33 35 38 41 43 44 46 47 48 49 51 52 54 56 56 58 61 63 66 69 71 73 76 76 74 71
36 31 30 27 25 22 18 14 17 18 19 20 22 25 27 30 32 34 37 40 42 45 46 47 47 48 50 51 53 55 55 56 59 61 64 67 70 70 71 74 75 74 69 70
39 36 31 29 27 24 20 18 19 21 22 24 27 30 32 34 36 38 41 43 46 47 47 48 49 51 52 53 54 55 56 59 61 65 68 69 70 72 74 76 74 71 71 72
39 40 34 32 29 28 26 24 24 25 27 30 32 34 37 39 41 43 45 46 47 47 48 49 51 53 53 53 54 56 59 63 65 66 66 68 72 74 75 74 72 72 71 74
41 40 37 35 34 34 33 31 30 31 34 36 37 38 40 41 43 45 47 48 49 50 51 53 54 54 53 55 57 60 63 65 65 66 69 73 75 74 72 71 70 71 72 73
Wind_Direction
175 320 306 198 221 164 139 128 125 99 101 92 113 139 81 48 40 293 132 135 153 180 172 169 150 140 191 323 337 328 317 305 292 293 295 289 300 311 314 317 314 315 314 312
23 351 130 127 144 120 125 171 141 130 126 92 85 313 153 104 95 58 241 222 72 210 179 164 83 55 355 334 317 305 294 293 285 274 281 298 310 312 309 313 314 313 311 310
21 128 159 165 141 109 149 152 156 175 127 101 173 253 217 168 140 250 275 273 342 341 337 4 1 354 336 322 302 277 265 262 269 285 295 301 308 305 310 311 308 307 308 306
3 178 190 179 167 137 122 192 173 172 218 227 225 249 267 259 270 289 265 273 264 305 315 337 314 306 302 297 286 254 257 276 288 296 301 304 303 307 307 304 304 304 306 308
77 167 187 199 184 118 133 165 184 204 223 227 232 243 272 278 273 279 278 290 282 287 285 307 302 301 295 283 271 276 281 291 301 304 303 302 306 303 301 303 304 305 306 306
197 171 185 185 168 211 141 171 200 212 220 222 236 244 253 286 245 313 247 257 298 300 290 254 271 278 285 282 281 288 292 299 299 299 300 301 299 300 302 303 303 304 305 307
200 168 192 206 237 221 182 188 210 229 234 241 234 242 274 235 256 231 234 260 288 291 242 255 288 268 282 287 287 291 292 294 295 298 298 298 299 301 304 304 306 308 310 311
206 199 197 238 216 213 212 219 234 233 240 251 255 241 252 260 259 249 244 263 257 263 293 300 294 282 279 281 286 290 294 296 298 297 298 300 302 305 305 307 309 312 311 310
208 211 215 225 241 257 252 227 235 239 243 239 255 245 247 262 259 244 260 238 252 274 281 286 284 284 288 292 294 295 296 296 296 298 298 299 303 305 307 310 310 309 308 308
220 228 220 225 251 254 252 243 251 238 243 245 250 254 258 260 258 259 252 260 266 266 274 281 283 289 293 292 293 295 296 297 298 298 299 302 303 305 307 308 308 307 306 306
213 221 227 237 235 241 249 237 220 228 235 257 257 253 266 271 267 249 245 250 262 266 273 275 281 287 287 290 295 298 299 298 299 300 299 299 300 305 293 306 305 306 304 303
222 229 235 256 241 222 241 239 236 251 254 263 260 254 258 254 251 252 255 258 264 269 272 276 283 284 284 286 292 293 291 288 291 298 303 309 307 304 290 303 305 305 303 303
227 239 245 231 231 241 233 241 246 256 255 257 262 273 269 267 269 264 258 258 263 264 269 275 281 283 285 289 288 290 291 297 305 306 305 304 302 303 305 304 304 304 305 304
230 243 242 230 233 241 242 244 246 253 259 269 274 277 265 259 259 257 264 270 274 278 280 282 281 286 289 288 294 303 301 300 300 295 298 302 303 303 304 303 302 303 302 303
234 237 239 239 240 250 258 261 260 258 267 269 270 274 271 260 255 259 265 273 281 287 290 292 290 290 299 301 299 296 290 295 296 301 302 301 301 301 301 301 301 301 303 304
236 232 235 245 250 250 255 263 267 272 274 267 272 264 264 255 259 269 278 286 291 292 293 300 284 282 286 287 286 290 291 298 301 300 298 298 300 300 300 301 303 304 304 304
234 238 240 244 253 257 259 266 268 265 258 266 270 272 273 275 271 270 274 281 289 294 299 301 294 292 290 291 292 297 300 299 296 296 298 300 301 303 302 303 303 305 305 305
241 241 246 248 254 258 267 260 263 264 265 266 269 268 268 269 273 275 277 282 286 289 289 291 293 293 294 296 297 298 296 297 299 301 302 303 303 302 305 305 307 306 305 304
241 247 255 257 255 258 261 263 263 263 261 265 269 270 268 269 273 276 283 286 288 290 291 293 293 293 294 295 295 298 301 301 302 302 302 303 305 306 306 306 306 305 305 303
239 244 255 258 257 258 252 259 261 258 259 266 266 267 270 273 277 282 285 286 287 289 289 289 291 294 297 299 300 300 300 302 302 303 304 305 306 306 307 307 306 305 303 302
242 247 255 259 263 261 261 253 257 259 268 262 264 266 268 273 279 282 284 287 289 290 293 296 299 300 300 299 300 301 301 303 304 305 306 305 306 307 307 305 305 305 305 306
245 251 258 263 265 266 259 255 260 262 262 265 268 273 277 278 281 285 289 291 293 296 300 301 300 300 300 301 303 303 304 306 306 305 306 308 308 307 308 308 306 307 308 307
245 251 255 262 264 265 267 260 258 258 261 269 277 280 283 287 291 295 297 299 301 301 302 302 302 302 304 304 304 305 306 305 306 307 308 308 308 308 307 306 307 308 306 306
242 246 252 260 264 266 269 266 263 268 274 278 282 288 293 297 299 300 301 302 302 303 304 303 303 304 304 304 304 304 304 307 307 307 308 309 309 309 309 308 307 305 304 306
246 247 250 257 265 269 270 270 275 279 281 284 288 294 297 299 300 302 302 303 303 303 302 302 302 303 304 304 304 305 306 307 307 308 309 309 309 309 308 307 305 305 306 308
246 249 254 259 265 271 275 279 283 285 285 288 293 296 298 299 300 301 302 302 302 303 303 304 304 304 304 305 306 306 306 307 308 309 310 310 309 308 306 303 302 304 307 309